Regional Weather Roundup
Issued by NWS

Home | Current Version | Previous Version | Text Only | Print | Product List | Glossary On
Versions: 1 2 3 4 5 6 7 8 9 10 11 12 13 14 15 16 17 18 19 20 21 22 23 24 25 26 27 28 29 30 31 32 33 34 35 36 37 38 39 40 41 42 43 44 45 46 47 48 49 50
000
ASUS43 KLMK 292110
RWRKY
KENTUCKY REGIONAL WEATHER ROUNDUP
NATIONAL WEATHER SERVICE LOUISVILLE KY
500 PM EDT FRI AUG 29 2014

NOTE "FAIR" INDICATES FEW OR NO CLOUDS BELOW 12,000 FEET
WITH NO SIGNIFICANT WEATHER AND/OR OBSTRUCTIONS TO VISIBILITY.

KYZ001>023-026-027-061>063-070>075-292200-
WESTERN AND SOUTH CENTRAL KENTUCKY

CITY           SKY/WX    TMP DP  RH WIND       PRES   REMARKS
PADUCAH        MOSUNNY   92  64  39 S8        29.91F HX  93
HENDERSON      PTSUNNY   93  64  38 S9        29.92F HX  95
OWENSBORO      NOT AVBL
HOPKINSVILLE   MOSUNNY   90  64  41 S10       29.96F HX  91
BOWLING GREEN  MOSUNNY   89  58  34 S14       29.98F
GLASGOW        PTSUNNY   89  59  36 S6        30.00F
$$

KYZ024-025-028>034-038-045-046-053-292200-
NORTH CENTRAL KENTUCKY

CITY           SKY/WX    TMP DP  RH WIND       PRES   REMARKS
LOUISVILLE/SDF MOSUNNY   92  65  40 S13       29.97F HX  94
LOUISVILLE/LOU SUNNY     90  61  37 S12G22    29.98F HX  90
FORT KNOX      SUNNY     90  66  45 S13       29.97F HX  92
$$

KYZ035>037-039>044-047>052-055>060-089>105-292200-
NORTHEAST KENTUCKY

CITY           SKY/WX    TMP DP  RH WIND       PRES   REMARKS
LEXINGTON      MOSUNNY   91  66  43 S9        30.01F HX  93
COVINGTON      MOSUNNY   88  68  51 S8        30.00F HX  91
FRANKFORT      SUNNY     89  67  47 SW7       29.99F HX  92
$$

KYZ054-064>069-076>088-106>120-292200-
SOUTHEAST KENTUCKY

CITY           SKY/WX    TMP DP  RH WIND       PRES   REMARKS
JACKSON        SUNNY     88  70  55 CALM      30.05F HX  93
LONDON         SUNNY     88  67  49 VRB3      30.05F HX  91
SOMERSET       MOSUNNY   88  63  42 W7        30.04F
MIDDLESBORO    SUNNY     91  65  42 SW8       30.05F HX  92
MONTICELLO     CLEAR     91  67  45 SW7       30.05F HX  94
$$




USA.gov is the U.S. government's official web portal to all federal, state and local government web resources and services.